This is the latest recevied weather packets stored in our database for station/object KA8DUX-2. If no packets are shown the sender has not sent any weather packets the latest 10 day(s).
| Time | Temp. | Humidity | Pressure | Rain* | Wind** | Luminosity | Snow |
|---|---|---|---|---|---|---|---|
| 1788562712 | 25.56° C | 89% | 1012.7 hPa | 0 mm | - | 70 W/m² | - |
| 1788562410 | 25.56° C | 88% | 1012.9 hPa | 0 mm | - | 49 W/m² | - |
| 1788562123 | 25.56° C | 89% | 1012.9 hPa | 0 mm | - | 69 W/m² | - |
| 1788561800 | 25° C | 89% | 1012.7 hPa | 0 mm | - | 69 W/m² | - |
| 1788561499 | 25° C | 89% | 1012.8 hPa | 0 mm | - | 77 W/m² | - |
| 1788561193 | 25° C | 89% | 1012.7 hPa | 0 mm | - | 107 W/m² | - |
| 1788560890 | 25.56° C | 88% | 1012.9 hPa | 0 mm | - | 61 W/m² | - |
| 1788560584 | 26.11° C | 85% | 1012.7 hPa | 0 mm | - | 69 W/m² | - |
| 1788560279 | 25.56° C | 87% | 1012.5 hPa | 0 mm | - | 109 W/m² | - |
| 1788559979 | 25° C | 88% | 1012.5 hPa | 0 mm | - | 115 W/m² | - |
| 1788559674 | 25° C | 89% | 1012.7 hPa | 0 mm | - | 74 W/m² | - |
| 1788559373 | 25° C | 88% | 1012.4 hPa | 0 mm | - | 73 W/m² | - |
| 1788559069 | 25.56° C | 87% | 1012.3 hPa | 0 mm | - | 100 W/m² | - |
| 1788558764 | 25.56° C | 87% | 1012.2 hPa | 0 mm | - | 128 W/m² | - |
| 1788558459 | 25.56° C | 89% | 1012.3 hPa | 0 mm | - | 193 W/m² | - |
| 1788558156 | 25° C | 88% | 1012.2 hPa | 0 mm | - | 158 W/m² | - |
| 1788557853 | 25° C | 88% | 1012.5 hPa | 0 mm | - | 176 W/m² | - |
| 1788557550 | 25° C | 89% | 1012.2 hPa | 0 mm | - | 143 W/m² | - |
| 1788557245 | 25° C | 90% | 1012.3 hPa | 0 mm | - | 160 W/m² | - |
| 1788556940 | 25° C | 91% | 1012.3 hPa | 0 mm | - | 169 W/m² | - |
| 1788556640 | 25° C | 91% | 1012.5 hPa | 0 mm | - | 164 W/m² | - |
| 1788556334 | 24.44° C | 91% | 1012.5 hPa | 0 mm | - | 154 W/m² | - |
| 1788556029 | 24.44° C | 91% | 1012.4 hPa | 0 mm | - | 156 W/m² | - |
| 1788555724 | 25° C | 91% | 1012.4 hPa | 0 mm | - | 164 W/m² | - |
| 1788555420 | 25° C | 90% | 1012.4 hPa | 0 mm | - | 170 W/m² | - |
* Rain latest hour (hover to see other rain measurements)
** Current wind speed in m/s (hover to see current wind gust speed)